#timestamp,LO_Frequency,Hit,StdDev 
1627077615.2,286046999.8,N
1627077635.9,286046998.5,N
1627077655.7,286047000.5,N
1627077675.6,286046998.5,N
1627077695.4,286047000.4,N
1627077715.2,286046999.8,N
1627077735.1,286047002.2,N
1627077736.0,286047002.2,N
1627077755.8,286047002.5,N
1627077775.7,286047002.1,N
1627077795.5,286047004.4,Y
1627077815.3,286047001.9,P
1627077835.2,286047001.4,N
1627077855.0,286047002.3,P
1627077855.9,286047002.3,Y
1627077875.8,286047000.0,P
1627077895.6,286047000.2,N
1627077915.4,286046999.9,N
1627077935.3,286047000.2,N
1627077955.1,286047001.2,N
1627077975.8,286046999.9,N
1627077995.7,286047001.0,N
1627078015.5,286047000.9,N
1627078035.4,286047000.6,N
1627078055.2,286047000.6,N
1627078075.0,286047000.0,N
1627078075.9,286047000.0,N
1627078095.8,286046999.7,N
1627078115.6,286047000.8,N
1627078135.4,286046998.5,N
1627078155.3,286047001.0,N
1627078175.1,286047000.8,N
1627078195.9,286047001.2,N
1627078215.7,286046998.6,N
1627078235.5,286046998.9,N
1627078255.4,286046998.7,N
1627078275.2,286046998.3,N
1627078295.0,286047001.0,N
1627078295.9,286047001.0,N
1627078315.8,286046999.8,N
1627078335.6,286047000.1,N
1627078355.5,286047002.7,N
1627078375.3,286047002.8,N
1627078395.1,286047000.3,N
1627078415.9,286047000.4,N
1627078435.7,286047000.0,N
1627078455.5,286047000.5,N
1627078475.4,286047000.5,N
1627078495.2,286047002.8,N
1627078515.1,286047002.5,N
1627078516.0,286047002.5,N
1627078535.8,286047002.7,N
1627078555.6,286047000.3,N
1627078575.5,286047000.1,N
1627078595.3,286047000.9,N
1627078615.1,286047000.9,N
1627078635.9,286047000.9,N
1627078655.7,286047000.2,N
1627078675.6,286047002.3,N
1627078695.4,286047000.4,N
1627078715.2,286047000.0,N
1627078735.1,286046999.3,N
1627078736.0,286046999.3,N
1627078755.8,286046998.6,N
1627078775.6,286047002.3,N
1627078795.5,286047001.6,N
1627078815.3,286047002.6,N
1627078835.2,286047002.3,N
1627078855.9,286047002.4,N
1627078875.7,286047002.0,N
1627078895.6,286046999.7,N
1627078915.4,286046999.7,N
1627078935.2,286047000.1,N
1627078955.1,286047000.1,N
1627078956.0,286047000.1,N
1627078975.8,286047000.2,N
1627078995.7,286046999.7,N
1627079015.5,286047002.4,N
1627079035.3,286047002.6,N
1627079055.2,286047001.4,N
1627079075.0,286046999.7,N
1627079075.9,286046999.7,N
1627079095.7,286047002.3,N
1627079115.6,286047004.4,Y
1627079135.4,286047002.5,P
1627079155.3,286047000.0,N
1627079175.1,286047000.3,N
1627079195.8,286047002.3,N
1627079215.7,286047001.4,N
1627079235.5,286047003.9,Y
1627079255.4,286047003.8,P
1627079275.2,286047002.6,N
1627079295.0,286047002.0,N
1627079295.9,286047002.0,N
1627079315.8,286047004.0,Y
1627079335.6,286046999.9,P
1627079355.4,286047000.9,N
1627079375.3,286047000.8,N
1627079395.1,286047000.8,N
1627079415.9,286047002.6,Y
1627079435.7,286047000.3,P
1627079455.5,286047002.7,P
1627079475.4,286046999.8,N
1627079495.2,286047000.0,N
1627079515.1,286047000.1,N
1627079516.0,286047000.1,N
1627079535.8,286047000.0,N
1627079555.7,286047000.9,N
1627079575.5,286047001.0,N
1627079595.3,286047000.2,N
1627079615.2,286047000.5,N
1627079635.0,286046998.1,N
1627079635.9,286046998.1,N
1627079655.7,286047000.4,N
1627079675.6,286046998.3,N
1627079695.4,286046999.5,N
1627079715.3,286046996.6,Y
1627079735.1,286046996.7,P
1627079755.8,286046997.2,N
1627079775.7,286046997.4,N
1627079795.5,286046997.5,N
1627079815.4,286046995.7,Y
1627079835.2,286046996.7,P
1627079855.0,286046997.0,P
1627079855.9,286046997.0,P
1627079875.8,286046997.7,Y
1627079895.6,286047000.9,P
1627079915.5,286046999.9,N
1627079935.3,286047000.7,N
1627079955.1,286047000.8,N
1627079975.9,286046998.8,N
1627079995.7,286046997.0,N
1627080015.5,286046996.8,N
1627080035.4,286046996.8,N
1627080055.2,286046996.9,N
1627080075.1,286046999.6,N
1627080076.0,286046999.6,N
1627080095.8,286046996.8,N
1627080115.6,286046997.2,N
1627080135.4,286046997.8,N
1627080155.2,286046996.8,N
1627080175.0,286046995.4,N
1627080175.9,286046995.4,N
1627080195.8,286046997.2,N
1627080215.6,286046997.2,N
1627080235.4,286046998.4,N
1627080255.3,286046999.3,N
1627080275.1,286046999.6,N
1627080295.9,286046996.9,N
1627080315.7,286046996.9,N
1627080335.5,286046997.1,N
1627080355.4,286046997.3,N
1627080375.2,286046995.2,Y
1627080395.0,286046999.4,P
1627080395.9,286046999.4,N
1627080415.8,286046999.2,N
1627080435.6,286046999.5,N
1627080455.5,286046998.5,N
1627080475.3,286046998.8,N
1627080495.1,286046998.1,Y
1627080515.9,286046999.7,P
1627080535.7,286047002.7,P
1627080555.5,286047002.8,N
1627080575.4,286047002.8,N
1627080595.2,286047002.3,N
1627080615.1,286047000.2,N
1627080616.0,286047000.2,N
1627080635.8,286046999.9,N
1627080655.7,286047000.0,N
1627080675.5,286046999.7,N
1627080695.3,286047002.8,N
1627080715.2,286047002.0,N
1627080735.0,286046999.9,N
1627080735.9,286046999.9,N
1627080755.8,286047000.6,N
1627080775.6,286047000.9,N
1627080795.4,286047000.5,N
1627080815.3,286047000.4,N
1627080835.1,286047000.1,N
1627080855.8,286047002.3,N
1627080875.7,286047002.0,N
1627080895.5,286047002.8,N
1627080915.4,286047002.6,N
1627080935.2,286046999.8,N
1627080955.0,286047002.5,N
1627080955.9,286047002.5,N
1627080975.8,286047000.2,N
1627080995.6,286047004.1,Y
1627081015.4,286047001.8,P
1627081035.3,286047004.4,P
1627081055.1,286047001.7,N
1627081075.9,286047001.3,N
1627081095.7,286047001.7,N
1627081115.5,286047001.9,N
1627081135.4,286047002.2,N
1627081155.2,286047002.6,N
1627081175.0,286047001.8,N
1627081175.9,286047001.8,N
1627081195.8,286047003.9,Y
